Content
SEND FEEDBACK

Daily
Averages
Monthly
Summary
United States of America

SURING, WISCONSIN


Home > North America > United States > Wisconsin
Elevation: 877 feet     Latitude: 45 01N     Longitude: 088 25W

WEATHER
 
SELECT A DAY
Number of Records: 134,474;   Date Range: 10/21/08 - 7/27/14
 
SHARE

PRINT THIS DATA

[ ← Previous Day ]
WEATHER ALMANAC - JANUARY 31, 2013
[ Next Day → ]
[ °C ]   °F
Weather ElementAverageHighLow
Temperature13.7 °F17.6 °F (12:35 am)5 °F (11:15 pm)
Dewpoint4.7 °F12.2 °F (12:35 am)-4 °F (11:35 pm)
Humidity67.6 %79 % (12:35 am)58 % (1:15 pm)
Barometer29.77 in30.04 in (11:55 pm)29.51 in (12:35 am)

Weather ElementAverage
Weather ElementTotal
Precipitation---
Heating Degree Days53.7 (Base 65)
Averaged from 70 records on January 31, 2013
WEATHER CONDITIONS BREAKOUT
WIND DIRECTION BREAKOUT
WEATHER BY HOUR - JANUARY 31, 2013
[ °C ]   °F
Local TimeTemperatureDewpointHumidityBarometerVisibilityWind DirectionWind SpeedGust SpeedPrecipitationEventsConditions
12:35 AM17.6 °F12.2 °F79 %29.51 in7.0 miNorthMostly Cloudy
12:55 AM17.6 °F12.2 °F79 %29.52 in4.0 miNorthSnowLight Snow
1:15 AM17.6 °F12.2 °F79 %29.53 in5.0 miNorthSnowLight Snow
1:35 AM17.6 °F12.2 °F79 %29.54 in10.0 miNorthOvercast
1:55 AM17.6 °F10.4 °F73 %29.54 in10.0 miNorthSnowLight Snow
2:15 AM17.6 °F10.4 °F73 %29.56 in7.0 miNorthSnowLight Snow
2:35 AM17.6 °F10.4 °F73 %29.56 in10.0 miNorthOvercast
2:55 AM17.6 °F10.4 °F73 %29.57 in7.0 miNorthOvercast
3:15 AM17.6 °F8.6 °F68 %29.57 in10.0 miNorthOvercast
3:35 AM17.6 °F8.6 °F68 %29.58 in10.0 miNorthOvercast
3:55 AM15.8 °F8.6 °F73 %29.58 in10.0 miNorthOvercast
4:15 AM15.8 °F8.6 °F73 %29.59 in10.0 miNorthOvercast
4:35 AM14.0 °F8.6 °F79 %29.60 in7.0 miNorthOvercast
4:55 AM14.0 °F8.6 °F79 %29.60 in10.0 miNorthOvercast
5:15 AM14.0 °F8.6 °F79 %29.61 in10.0 miNorthOvercast
5:35 AM14.0 °F6.8 °F73 %29.61 in10.0 miNorthOvercast
5:55 AM14.0 °F6.8 °F73 %29.61 in10.0 miNorthOvercast
6:15 AM14.0 °F6.8 °F73 %29.62 in10.0 miNorthOvercast
6:55 AM14.0 °F5.0 °F67 %29.64 in10.0 miNorthOvercast
7:15 AM12.2 °F5.0 °F73 %29.64 in10.0 miNorthOvercast
7:35 AM12.2 °F5.0 °F73 %29.65 in10.0 miNorthOvercast
7:55 AM12.2 °F5.0 °F73 %29.66 in10.0 miNorthMostly Cloudy
8:15 AM12.2 °F3.2 °F67 %29.68 in10.0 miNorthMostly Cloudy
8:35 AM12.2 °F5.0 °F73 %29.69 in10.0 miNorthOvercast
8:55 AM12.2 °F5.0 °F73 %29.70 in10.0 miNorthOvercast
9:15 AM12.2 °F3.2 °F67 %29.71 in10.0 miNorthOvercast
9:35 AM12.2 °F3.2 °F67 %29.72 in10.0 miNorthOvercast
9:55 AM12.2 °F3.2 °F67 %29.73 in10.0 miNorthOvercast
10:15 AM14.0 °F3.2 °F62 %29.73 in10.0 miNorthOvercast
10:35 AM14.0 °F3.2 °F62 %29.74 in10.0 miNorthOvercast
10:55 AM14.0 °F3.2 °F62 %29.74 in10.0 miNorthOvercast
11:15 AM14.0 °F3.2 °F62 %29.74 in10.0 miNorthOvercast
11:35 AM14.0 °F3.2 °F62 %29.74 in10.0 miNorthOvercast
11:55 AM15.8 °F5.0 °F62 %29.74 in10.0 miNorthOvercast
12:15 PM15.8 °F5.0 °F62 %29.74 in10.0 miNorthOvercast
12:35 PM15.8 °F5.0 °F62 %29.75 in5.0 miNorthHaze
12:55 PM17.6 °F6.8 °F63 %29.75 in10.0 miNorthOvercast
1:15 PM17.6 °F5.0 °F58 %29.76 in7.0 miNorthOvercast
1:35 PM17.6 °F5.0 °F58 %29.77 in10.0 miNorthOvercast
1:55 PM17.6 °F8.6 °F68 %29.77 in10.0 miNorthOvercast
2:15 PM17.6 °F8.6 °F68 %29.78 in10.0 miNorthOvercast
2:35 PM17.6 °F8.6 °F68 %29.78 in4.0 miNorthHaze
2:55 PM17.6 °F6.8 °F63 %29.79 in10.0 miNorthOvercast
3:15 PM17.6 °F6.8 °F63 %29.80 in10.0 miNorthOvercast
3:35 PM17.6 °F5.0 °F58 %29.81 in10.0 miNorthOvercast
3:55 PM17.6 °F6.8 °F63 %29.81 in10.0 miNorthOvercast
4:15 PM15.8 °F5.0 °F62 %29.83 in10.0 miNorthOvercast
4:35 PM15.8 °F6.8 °F68 %29.84 in10.0 miNorthOvercast
4:55 PM15.8 °F5.0 °F62 %29.85 in10.0 miNorthMostly Cloudy
5:15 PM14.0 °F5.0 °F67 %29.86 in10.0 miNorthMostly Cloudy
5:35 PM14.0 °F3.2 °F62 %29.88 in10.0 miNorthScattered Clouds
5:55 PM14.0 °F3.2 °F62 %29.89 in10.0 miNorthClear
6:15 PM12.2 °F3.2 °F67 %29.90 in10.0 miNorthClear
6:35 PM12.2 °F1.4 °F62 %29.91 in10.0 miNorthScattered Clouds
6:55 PM12.2 °F1.4 °F62 %29.92 in10.0 miNorthScattered Clouds
7:15 PM12.2 °F1.4 °F62 %29.94 in10.0 miNorthClear
7:35 PM10.4 °F-0.4 °F62 %29.95 in10.0 miNorthScattered Clouds
7:55 PM10.4 °F-0.4 °F62 %29.96 in10.0 miNorthClear
8:15 PM10.4 °F-0.4 °F62 %29.96 in10.0 miNorthClear
8:35 PM10.4 °F-0.4 °F62 %29.97 in10.0 miNorthClear
8:55 PM10.4 °F-0.4 °F62 %29.98 in10.0 miNorthClear
9:15 PM10.4 °F-0.4 °F62 %29.99 in10.0 miNorthClear
9:35 PM8.6 °F-0.4 °F67 %30.00 in10.0 miNorthClear
9:55 PM8.6 °F-0.4 °F67 %30.00 in10.0 miNorthClear
10:15 PM6.8 °F-0.4 °F72 %30.01 in10.0 miNorthClear
10:35 PM6.8 °F-0.4 °F72 %30.01 in10.0 miNorthClear
10:55 PM6.8 °F-2.2 °F67 %30.02 in10.0 miNorthClear
11:15 PM5.0 °F-2.2 °F72 %30.02 in10.0 miNorthMostly Cloudy
11:35 PM5.0 °F-4.0 °F66 %30.03 in10.0 miNorthScattered Clouds
11:55 PM5.0 °F-4.0 °F66 %30.04 in10.0 miNorthClear
Hourly data recorded from KEZS, located miles away from Suring, Wisconsin







STORIES FROM OUR PARTNERS